Humidity-temperature Sensor

Selected Measurement Type: Relative Humidity

 
Relative Humidity [%]     6 entries per hour
Showing data from 9/16/2017 (00:00:00 Z) to 9/15/2017 (00:01:00 Z)
Previous Next [ Day | 3-Days | 7-Days ]
First Last
Prev [ Day | 3-Days | 7-Days ] Next
First Last

Start Time:     :
End Time:     :     
Time (in GMT) :00 :50 :40 :30 :20 :10
Previous Next [ Day | 3-Days | 7-Days ]
First Last
Prev [ Day | 3-Days | 7-Days ] Next
First Last


123 => good data
MM => data is determined as missing
-- => data not received/configured
Back to Top Back to Top
9/16/2017 00:00 to 23:10 72.40 71.44 71.47 70.70 72.02 72.63
9/15/2017 23:00 to 22:10 72.54 73.70 73.70 74.84 74.18 74.55
9/15/2017 22:00 to 21:10 74.76 73.85 74.68 74.78 75.01 75.09
9/15/2017 21:00 to 20:10 75.13 75.01 74.47 74.99 73.64 74.14
9/15/2017 20:00 to 19:10 74.41 75.46 75.15 74.30 74.39 75.13
9/15/2017 19:00 to 18:10 75.94 75.36 75.59 74.76 74.92 75.42
9/15/2017 18:00 to 17:10 76.09 76.46 78.53 77.66 76.02 76.98
9/15/2017 17:00 to 16:10 76.81 76.33 77.35 76.23 75.80 76.46
9/15/2017 16:00 to 15:10 76.62 75.77 76.77 77.37 78.41 80.12
9/15/2017 15:00 to 14:10 79.40 80.12 79.23 80.85 80.44 80.08
9/15/2017 14:00 to 13:10 80.19 74.14 75.32 74.45 74.82 74.24
9/15/2017 13:00 to 12:10 74.59 74.51 74.68 75.32 75.88 74.80
9/15/2017 12:00 to 11:10 74.99 76.13 76.50 77.22 77.54 76.79
9/15/2017 11:00 to 10:10 77.76 79.67 78.45 78.05 71.42 70.72
9/15/2017 10:00 to 9:10 74.39 72.02 71.84 70.78 71.32 69.99
9/15/2017 09:00 to 8:10 70.37 70.28 67.05 66.87 66.39 64.59
9/15/2017 08:00 to 7:10 69.27 67.28 67.05 66.72 67.32 65.42
9/15/2017 07:00 to 6:10 64.94 68.79 66.97 65.38 66.12 67.09
9/15/2017 06:00 to 5:10 67.07 66.49 66.64 66.37 66.91 65.27
9/15/2017 05:00 to 4:10 63.82 62.91 63.12 61.94 61.60 60.76
9/15/2017 04:00 to 3:10 61.36 65.02 65.31 64.80 62.91 65.44
9/15/2017 03:00 to 2:10 65.35 65.85 67.86 65.48 67.99 68.25
9/15/2017 02:00 to 1:10 67.36 67.28 67.38 67.55 67.16 66.14
9/15/2017 01:00 to 0:10 66.56 69.33 69.23 68.54 69.19 68.71